Location: Newark
(50.9000°N, 14.8333°E)
Time: 19:11:16
(UTC+00:00)

N. Korean satellite - Pass Details

Date: 03 November 2020
Orbit: 453 x 503 km, 97.2° (Epoch: 04 December)

Event Time Altitude Azimuth Distance (km) Brightness Sun altitude
Rises 16:05:40 0° 185° (S) 2,516 10.5 -5.9°
Reaches altitude 10° 16:07:50 10° 195° (SSW) 1,634 9.7 -6.3°
Maximum altitude 16:11:05 35° 263° (W) 774 8.5 -6.8°
Drops below altitude 10° 16:14:19 10° 331° (NNW) 1,624 9.4 -7.3°
Sets 16:16:29 0° 340° (NNW) 2,498 10.2 -7.6°
